EW2235 Weather Reports


Display with metric or nautical units.
time (UTC)temp
F
wind
direction
speed
MPH
gust
MPH
rain 1hr
in
rain 24hr
in
rain mn
in
humidity
%
barometer
mb
20260904133320 52 134 0.0 2.0 0.00 0.34 0.08 93 1011.6
20260904132822 52 124 0.0 2.0 0.00 0.34 0.08 93 1011.6
20260904132328 52 122 0.0 2.0 0.00 0.34 0.08 93 1011.5
20260904131831 53 122 0.0 2.0 0.00 0.34 0.08 93 1011.4
20260904131337 53 103 0.0 2.0 0.00 0.34 0.08 93 1011.5
20260904130820 53 122 0.0 1.0 0.00 0.34 0.08 93 1011.5
20260904130319 53 124 0.0 1.0 0.00 0.37 0.08 93 1011.4
20260904125817 53 110 0.0 1.0 0.00 0.37 0.08 93 1011.3
20260904125324 53 110 0.0 1.0 0.01 0.37 0.08 93 1011.3
20260904124826 53 128 0.0 1.0 0.01 0.37 0.08 93 1011.3
20260904124333 52 115 0.0 1.0 0.02 0.37 0.08 93 1011.2
20260904123822 52 116 0.0 0.0 0.02 0.37 0.08 93 1011.2
20260904123321 52 116 0.0 0.0 0.03 0.37 0.08 93 1011.2
20260904122815 52 116 0.0 0.0 0.04 0.37 0.08 93 1011.2
20260904122321 52 116 0.0 0.0 0.04 0.37 0.08 93 1011.2
20260904121823 52 116 0.0 0.0 0.05 0.37 0.08 93 1011.3
20260904121330 52 116 0.0 0.0 0.05 0.37 0.08 93 1011.2
20260904120833 52 116 0.0 0.0 0.05 0.37 0.08 93 1011.1
20260904120311 52 116 0.0 0.0 0.05 0.37 0.08 93 1011.1
20260904115822 52 116 0.0 0.0 0.05 0.36 0.07 93 1011.0
20260904115320 52 143 0.0 0.0 0.05 0.36 0.07 93 1011.0
20260904114822 52 143 0.0 0.0 0.06 0.36 0.07 93 1011.0
20260904114329 52 143 0.0 0.0 0.05 0.35 0.06 93 1011.1
20260904113832 53 122 0.0 1.0 0.05 0.35 0.06 93 1011.0
20260904113338 53 118 0.0 1.0 0.04 0.34 0.05 93 1011.0
20260904112819 53 114 0.0 1.0 0.03 0.33 0.04 93 1010.9
20260904112318 53 114 0.0 1.0 0.04 0.33 0.04 93 1010.9
20260904111820 53 90 0.0 0.0 0.03 0.32 0.03 93 1010.8
20260904111326 53 122 0.0 0.0 0.03 0.32 0.03 93 1010.7
20260904110816 53 122 0.0 0.0 0.03 0.32 0.03 93 1010.8
20260904110315 53 122 0.0 0.0 0.03 0.32 0.03 93 1010.7
20260904105824 53 122 0.0 0.0 0.02 0.31 0.02 93 1010.7
20260904105323 54 122 0.0 0.0 0.02 0.31 0.02 93 1010.8
20260904104833 54 122 0.0 0.0 0.01 0.30 0.01 93 1010.8
20260904104312 54 122 0.0 0.0 0.01 0.30 0.01 93 1010.8
20260904103815 54 122 0.0 0.0 0.01 0.30 0.01 93 1010.8
20260904102830 54 122 0.0 0.0 0.01 0.30 0.01 93 1010.7
20260904102330 54 134 0.0 0.0 0.00 0.29 0.00 93 1010.7
20260904101812 54 134 0.0 0.0 0.00 0.29 0.00 93 1010.7
20260904101319 54 134 0.0 0.0 0.00 0.29 0.00 93 1010.6
20260904100822 53 134 0.0 0.0 0.00 0.29 0.00 93 1010.6
20260904100328 53 134 0.0 0.0 0.00 0.29 0.00 93 1010.6
20260904095830 53 134 0.0 0.0 0.00 0.29 0.00 93 1010.6
20260904095329 53 134 0.0 0.0 0.00 0.29 0.00 93 1010.5
20260904094839 53 134 0.0 0.0 0.00 0.29 0.00 93 1010.5
20260904094318 53 134 0.0 0.0 0.00 0.29 0.00 93 1010.5
20260904093819 53 134 0.0 0.0 0.00 0.29 0.00 93 1010.4
20260904093326 53 134 0.0 0.0 0.00 0.29 0.00 93 1010.5
20260904092829 53 134 0.0 0.0 0.00 0.29 0.00 93 1010.4
20260904092334 53 134 0.0 0.0 0.00 0.29 0.00 93 1010.4
20260904091816 53 134 0.0 0.0 0.00 0.29 0.00 93 1010.3
20260904091315 53 134 0.0 0.0 0.00 0.29 0.00 93 1010.3
20260904090817 53 134 0.0 0.0 0.00 0.29 0.00 93 1010.3
20260904090323 53 134 0.0 0.0 0.00 0.33 0.00 93 1010.4
20260904085813 53 134 0.0 0.0 0.00 0.33 0.00 93 1010.4
20260904085312 54 134 0.0 2.0 0.00 0.33 0.00 93 1010.4
20260904084822 54 136 0.0 2.0 0.00 0.33 0.00 93 1010.4
20260904084321 54 138 0.0 1.0 0.00 0.33 0.00 93 1010.4
20260904083831 54 124 0.0 0.0 0.00 0.33 0.00 93 1010.3
20260904083318 53 124 0.0 0.0 0.00 0.33 0.00 93 1010.4
20260904082819 53 124 0.0 0.0 0.00 0.33 0.00 93 1010.3
20260904082319 54 120 0.0 0.0 0.00 0.33 0.00 93 1010.3
20260904081828 54 120 0.0 0.0 0.00 0.33 0.00 93 1010.3
20260904081327 54 138 0.0 0.0 0.00 0.33 0.00 93 1010.4
20260904080837 54 127 0.0 0.0 0.00 0.33 0.00 93 1010.4
20260904080315 54 174 0.0 1.0 0.00 0.34 0.00 93 1010.4
20260904075818 54 121 0.0 1.0 0.00 0.34 0.00 93 1010.5
20260904075323 54 137 0.0 1.0 0.00 0.34 0.00 93 1010.5
20260904074826 54 141 0.0 1.0 0.00 0.34 0.00 93 1010.5
20260904074325 54 107 0.0 0.0 0.00 0.34 0.00 93 1010.5
20260904073834 54 107 0.0 0.0 0.00 0.34 0.00 93 1010.4
20260904073314 54 107 0.0 0.0 0.00 0.34 0.00 93 1010.4
20260904072816 54 107 0.0 0.0 0.00 0.34 0.00 93 1010.4
20260904072322 54 107 0.0 0.0 0.00 0.34 0.00 93 1010.4
20260904071325 54 121 0.0 0.0 0.00 0.34 0.00 93 1010.4
20260904070814 54 121 0.0 0.0 0.00 0.34 0.00 93 1010.4
20260904070313 54 121 0.0 0.0 0.00 0.34 0.34 93 1010.3
20260904065815 54 121 0.0 0.0 0.00 0.34 0.34 93 1010.3
20260904065322 54 121 0.0 0.0 0.00 0.34 0.34 93 1010.3
20260904064824 54 133 0.0 0.0 0.00 0.34 0.34 93 1010.4
20260904064332 54 124 0.0 0.0 0.00 0.34 0.34 93 1010.3
20260904063817 54 96 0.0 0.0 0.00 0.34 0.34 93 1010.3
20260904063316 54 96 0.0 0.0 0.00 0.34 0.34 93 1010.3
20260904062312 54 96 0.0 0.0 0.00 0.34 0.34 93 1010.3
20260904061816 54 96 0.0 0.0 0.00 0.34 0.34 93 1010.3
20260904061315 54 96 0.0 0.0 0.00 0.34 0.34 93 1010.3
20260904060908 54 96 0.0 0.0 0.00 0.34 0.34 93 1010.2
20260904060322 54 96 0.0 0.0 0.00 0.34 0.34 93 1010.2
20260904055824 54 96 0.0 0.0 0.00 0.34 0.34 93 1010.2
20260904055331 54 96 0.0 0.0 0.00 0.34 0.34 92 1010.2
20260904054824 54 96 0.0 0.0 0.00 0.34 0.34 92 1010.3
20260904054324 54 96 0.0 0.0 0.00 0.34 0.34 92 1010.3
20260904053835 54 96 0.0 0.0 0.00 0.34 0.34 92 1010.3
20260904053312 54 96 0.0 0.0 0.00 0.34 0.34 92 1010.3
20260904052815 54 96 0.0 0.0 0.00 0.34 0.34 91 1010.3
20260904052320 54 96 0.0 0.0 0.00 0.34 0.34 91 1010.4
20260904051823 54 96 0.0 0.0 0.00 0.34 0.34 91 1010.4
20260904051406 55 96 0.0 0.0 0.00 0.34 0.34 91 1010.4
20260904050830 55 96 0.0 0.0 0.00 0.34 0.34 91 1010.5
20260904045821 55 127 0.0 2.0 0.00 0.34 0.34 90 1010.5
20260904045321 55 98 0.0 1.0 0.00 0.34 0.34 90 1010.5
20260904044830 55 120 0.0 3.0 0.00 0.34 0.34 90 1010.5
20260904044330 55 98 0.0 3.0 0.00 0.34 0.34 90 1010.5
20260904043839 55 127 0.0 1.0 0.00 0.34 0.34 90 1010.6
20260904043319 55 167 0.0 3.0 0.00 0.34 0.34 91 1010.5
20260904042824 55 57 0.0 2.0 0.00 0.34 0.34 91 1010.5
20260904042327 55 142 0.0 2.0 0.00 0.34 0.34 92 1010.6
20260904041830 55 100 0.0 5.0 0.00 0.34 0.34 92 1010.5
20260904041329 55 131 1.0 5.0 0.00 0.34 0.34 93 1010.6
20260904040820 55 83 0.0 0.0 0.00 0.34 0.34 93 1010.6
20260904040316 55 83 0.0 0.0 0.00 0.34 0.34 93 1010.6
20260904035819 55 83 0.0 0.0 0.00 0.34 0.34 93 1010.5
20260904035325 55 83 0.0 0.0 0.00 0.34 0.34 93 1010.5
20260904034828 55 83 0.0 0.0 0.00 0.34 0.34 93 1010.5
20260904034334 55 131 0.0 0.0 0.00 0.34 0.34 93 1010.5
20260904033816 55 124 0.0 0.0 0.00 0.34 0.34 93 1010.4
20260904033313 55 101 0.0 0.0 0.00 0.34 0.34 93 1010.3
20260904032823 55 101 0.0 0.0 0.00 0.34 0.34 93 1010.3
20260904032321 54 101 0.0 0.0 0.00 0.34 0.34 93 1010.2
20260904031824 54 101 0.0 0.0 0.00 0.34 0.34 92 1010.1
20260904031330 55 101 0.0 0.0 0.00 0.34 0.34 92 1010.1
20260904030813 55 101 0.0 0.0 0.00 0.34 0.34 92 1010.1
20260904030312 55 101 0.0 0.0 0.00 0.34 0.34 92 1010.0
20260904025822 55 101 0.0 0.0 0.00 0.34 0.34 92 1010.0
20260904025321 55 101 0.0 0.0 0.00 0.34 0.34 92 1009.9
20260904024823 55 87 0.0 0.0 0.00 0.34 0.34 92 1009.9
20260904024330 55 89 0.0 0.0 0.00 0.34 0.34 92 1009.9
20260904023832 55 89 0.0 0.0 0.00 0.34 0.34 92 1009.8
20260904023311 55 86 0.0 0.0 0.00 0.34 0.34 92 1009.9
20260904022820 56 100 0.0 0.0 0.00 0.34 0.34 91 1009.8
20260904022319 56 131 0.0 0.0 0.00 0.34 0.34 91 1009.8
20260904021828 56 139 0.0 0.0 0.00 0.34 0.34 91 1009.8
20260904021327 56 139 0.0 0.0 0.00 0.34 0.34 90 1009.8
20260904020830 56 139 0.0 0.0 0.00 0.34 0.34 90 1009.8
20260904020335 56 139 0.0 0.0 0.00 0.36 0.34 90 1009.8
20260904015825 57 136 0.0 0.0 0.00 0.36 0.34 90 1009.8
20260904015321 57 135 0.0 0.0 0.00 0.36 0.34 89 1009.8
20260904014830 57 136 0.0 1.0 0.00 0.36 0.34 89 1009.9
20260904014329 57 149 0.0 0.0 0.00 0.36 0.34 89 1009.9
20260904013839 57 150 0.0 1.0 0.00 0.36 0.34 89 1009.9
20260904013317 57 130 0.0 5.0 0.00 0.36 0.34 88 1009.9
20260904012819 57 111 1.0 5.0 0.00 0.36 0.34 88 1009.9
20260904012318 57 120 0.0 3.0 0.00 0.36 0.34 88 1010.0
20260904011834 57 198 1.0 3.0 0.00 0.36 0.34 88 1009.9
20260904011314 57 166 0.0 8.0 0.00 0.36 0.34 87 1009.9
20260904010816 57 84 0.0 9.0 0.00 0.36 0.34 86 1009.9
20260904010321 57 146 1.0 9.0 0.00 0.37 0.34 85 1009.9
20260904005824 57 195 2.0 8.0 0.00 0.37 0.34 86 1009.9
20260904005330 56 158 0.0 0.0 0.00 0.37 0.34 89 1009.9
20260904004812 56 134 0.0 0.0 0.00 0.37 0.34 89 1009.9
20260904004311 56 132 0.0 0.0 0.00 0.37 0.34 90 1009.9
20260904003814 56 97 0.0 0.0 0.00 0.37 0.34 90 1009.8
20260904003320 55 96 0.0 1.0 0.00 0.37 0.34 88 1009.9
20260904002823 56 100 0.0 1.0 0.00 0.37 0.34 88 1009.9
20260904002329 56 108 0.0 0.0 0.00 0.37 0.34 88 1010.0
20260904001832 56 120 0.0 0.0 0.00 0.37 0.34 87 1010.0
20260904001311 56 73 0.0 1.0 0.00 0.37 0.34 86 1010.0
20260904000821 56 78 0.0 1.0 0.00 0.37 0.34 87 1010.0
20260904000320 57 64 0.0 1.0 0.00 0.40 0.34 89 1010.1
20260903235822 56 74 0.0 0.0 0.00 0.40 0.34 90 1010.2
20260903235329 56 105 0.0 0.0 0.00 0.40 0.34 90 1010.1
20260903234831 56 90 0.0 1.0 0.01 0.40 0.34 91 1010.0
20260903234318 55 133 0.0 1.0 0.01 0.40 0.34 91 1010.1
20260903233828 55 120 0.0 0.0 0.01 0.40 0.34 91 1010.0
20260903233327 55 109 0.0 0.0 0.01 0.40 0.34 92 1010.0
20260903232836 55 108 0.0 0.0 0.01 0.40 0.34 91 1010.0
20260903232315 55 113 0.0 0.0 0.01 0.40 0.34 91 1010.1
20260903231826 55 133 0.0 0.0 0.02 0.40 0.34 91 1010.0
20260903231324 55 113 0.0 0.0 0.02 0.40 0.34 91 1010.1
20260903230817 55 113 0.0 0.0 0.02 0.40 0.34 90 1010.2
20260903230316 55 300 0.0 0.0 0.02 0.48 0.34 91 1010.3
20260903225818 55 65 0.0 5.0 0.02 0.48 0.34 91 1010.4
20260903225325 55 308 1.0 5.0 0.02 0.48 0.34 89 1010.5
20260903224827 55 329 0.0 6.0 0.01 0.47 0.33 89 1010.4
20260903224313 55 293 0.0 2.0 0.02 0.47 0.33 89 1010.5
20260903223838 55 314 0.0 2.0 0.05 0.47 0.33 88 1010.7
20260903223315 56 23 0.0 1.0 0.06 0.47 0.33 89 1010.6
20260903222824 56 334 0.0 0.0 0.06 0.47 0.33 88 1010.5
20260903222329 56 200 0.0 1.0 0.06 0.47 0.33 89 1010.5
20260903221839 56 237 0.0 2.0 0.05 0.46 0.32 87 1010.5
20260903221315 56 28 0.0 2.0 0.05 0.46 0.32 88 1010.4
20260903220823 57 338 0.0 0.0 0.05 0.46 0.32 88 1010.5
20260903220322 57 338 0.0 0.0 0.05 0.47 0.32 90 1010.4
20260903215831 57 336 0.0 3.0 0.05 0.47 0.32 88 1010.4
20260903215331 57 319 0.0 3.0 0.05 0.47 0.32 88 1010.4
20260903214813 58 251 0.0 3.0 0.05 0.47 0.32 86 1010.4
20260903214319 59 152 0.0 3.0 0.04 0.46 0.31 85 1010.4
20260903213820 59 127 0.0 8.0 0.00 0.42 0.27 81 1010.3
20260903213326 60 259 0.0 9.0 0.01 0.42 0.27 78 1010.3
20260903212829 60 60 0.0 7.0 0.01 0.42 0.27 79 1010.3
20260903212327 59 298 0.0 7.0 0.01 0.42 0.27 81 1010.4
20260903211837 59 324 0.0 3.0 0.01 0.42 0.27 83 1010.4
20260903211316 59 135 0.0 3.0 0.01 0.42 0.27 84 1010.4
20260903210818 59 300 0.0 3.0 0.01 0.42 0.27 82 1010.4
20260903210325 59 265 0.0 5.0 0.01 0.43 0.27 82 1010.5
20260903205827 58 240 1.0 5.0 0.01 0.43 0.27 83 1010.5
20260903205334 59 332 1.0 3.0 0.01 0.43 0.27 83 1010.3
20260903204816 59 327 0.0 3.0 0.01 0.43 0.27 86 1010.3
20260903204315 59 333 0.0 7.0 0.01 0.43 0.27 86 1010.3
20260903203817 59 238 0.0 6.0 0.01 0.43 0.27 83 1010.4
20260903203323 59 41 1.0 6.0 0.00 0.42 0.26 82 1010.3
20260903202825 59 346 0.0 5.0 0.00 0.42 0.26 82 1010.2
20260903202332 59 71 0.0 2.0 0.00 0.42 0.26 82 1010.3
20260903201814 60 34 0.0 3.0 0.00 0.42 0.26 81 1010.2
20260903201314 60 65 0.0 3.0 0.00 0.42 0.26 84 1010.2
20260903200820 60 96 0.0 5.0 0.00 0.42 0.26 81 1010.2
20260903200318 60 228 1.0 12.0 0.00 0.55 0.26 82 1010.2
20260903195817 60 314 1.0 12.0 0.00 0.55 0.26 82 1010.2
20260903195322 60 81 2.0 9.0 0.00 0.55 0.26 81 1010.2
20260903194825 60 158 1.0 21.0 0.00 0.55 0.26 81 1010.2
20260903194331 60 162 4.0 21.0 0.00 0.55 0.26 81 1010.2
20260903193820 60 250 0.0 8.0 0.00 0.55 0.26 85 1010.2
20260903193320 60 193 3.0 8.0 0.00 0.55 0.26 83 1010.2
20260903192830 60 17 1.0 5.0 0.00 0.55 0.26 84 1010.2
20260903192328 60 113 0.0 5.0 0.01 0.55 0.26 89 1010.2
20260903191830 59 120 0.0 7.0 0.01 0.55 0.26 88 1010.3
20260903191337 58 172 1.0 6.0 0.01 0.55 0.26 89 1010.3
20260903190840 59 15 0.0 8.0 0.01 0.55 0.26 89 1010.3
20260903190325 59 75 0.0 8.0 0.01 0.63 0.26 90 1010.4
20260903185827 58 94 0.0 3.0 0.01 0.63 0.26 92 1010.4
20260903185327 58 136 0.0 4.0 0.01 0.63 0.26 92 1010.5
20260903184817 57 317 1.0 4.0 0.01 0.63 0.26 93 1010.4
20260903184315 57 326 0.0 1.0 0.01 0.63 0.26 93 1010.4
20260903183816 56 342 0.0 3.0 0.01 0.63 0.26 92 1010.5
20260903183323 57 328 1.0 3.0 0.01 0.63 0.26 90 1010.6
20260903182818 57 298 0.0 5.0 0.01 0.63 0.26 89 1010.5
20260903182317 58 315 1.0 5.0 0.00 0.62 0.25 89 1010.4
20260903181821 59 238 0.0 3.0 0.00 0.62 0.25 89 1010.3
20260903181326 59 210 0.0 2.0 0.00 0.62 0.25 90 1010.4
20260903180834 59 205 0.0 1.0 0.00 0.62 0.25 91 1010.4
20260903180331 58 70 0.0 2.0 0.00 0.70 0.25 91 1010.3
20260903175827 58 307 0.0 4.0 0.00 0.70 0.25 91 1010.4
20260903175333 58 62 0.0 2.0 0.00 0.70 0.25 91 1010.3
20260903174813 58 81 0.0 4.0 0.00 0.70 0.25 92 1010.3
20260903174318 58 178 0.0 4.0 0.00 0.70 0.25 91 1010.3
20260903173849 58 79 0.0 3.0 0.00 0.70 0.25 92 1010.2
20260903173346 58 89 0.0 3.0 0.00 0.70 0.25 91 1010.2
20260903172835 59 215 0.0 3.0 0.00 0.70 0.25 92 1010.3
20260903172335 58 108 0.0 4.0 0.00 0.70 0.25 93 1010.2
20260903171844 57 219 1.0 4.0 0.00 0.70 0.25 92 1010.3
20260903171351 57 242 1.0 6.0 0.01 0.70 0.25 93 1010.2
20260903170900 57 124 2.0 8.0 0.01 0.70 0.25 93 1010.2
20260903170339 57 141 2.0 7.0 0.01 0.70 0.25 93 1010.3
20260903165333 56 165 1.0 5.0 0.01 0.70 0.25 93 1010.5
20260903164841 56 136 0.0 0.0 0.02 0.70 0.25 93 1010.5
20260903164336 55 47 0.0 0.0 0.04 0.70 0.25 93 1010.5
20260903163845 55 8 0.0 0.0 0.04 0.70 0.25 93 1010.5
20260903163351 54 8 0.0 0.0 0.05 0.70 0.25 93 1010.5
20260903162834 54 8 0.0 0.0 0.05 0.70 0.25 93 1010.6
20260903162340 54 8 0.0 0.0 0.05 0.70 0.25 93 1010.6
20260903161851 54 8 0.0 0.0 0.06 0.70 0.25 93 1010.5
20260903160846 53 8 0.0 3.0 0.05 0.69 0.24 93 1010.5
20260903160359 53 340 0.0 3.0 0.06 0.69 0.24 93 1010.4
20260903155839 53 347 0.0 1.0 0.06 0.69 0.24 93 1010.4
20260903155345 53 333 0.0 1.0 0.06 0.69 0.24 93 1010.5
20260903154854 53 338 0.0 4.0 0.06 0.68 0.23 93 1010.4
20260903154333 53 10 1.0 4.0 0.04 0.66 0.21 93 1010.5
20260903153843 53 153 0.0 2.0 0.04 0.66 0.21 93 1010.5
20260903153349 53 38 0.0 2.0 0.03 0.65 0.20 93 1010.5
20260903152851 53 23 0.0 2.0 0.04 0.65 0.20 93 1010.5
20260903152337 53 312 0.0 2.0 0.04 0.65 0.20 93 1010.4
20260903151847 53 347 0.0 3.0 0.04 0.64 0.19 93 1010.4
20260903151346 53 354 0.0 3.0 0.04 0.64 0.19 93 1010.4
20260903150836 53 306 0.0 2.0 0.04 0.64 0.19 93 1010.3
20260903150358 53 28 0.0 3.0 0.03 0.63 0.18 93 1010.3
20260903145841 53 356 0.0 8.0 0.04 0.63 0.18 93 1010.2
20260903145347 53 49 0.0 8.0 0.04 0.63 0.18 93 1010.2
20260903144857 53 181 0.0 5.0 0.03 0.62 0.17 93 1010.2
20260903144315 53 132 1.0 6.0 0.03 0.62 0.17 93 1010.1
20260903143817 53 259 1.0 6.0 0.04 0.62 0.17 93 1010.1
20260903143323 53 25 1.0 5.0 0.04 0.62 0.17 93 1010.1
20260903142825 53 233 0.0 4.0 0.03 0.61 0.16 93 1010.1
20260903142331 53 343 0.0 4.0 0.03 0.61 0.16 93 1010.0
20260903141319 53 37 0.0 0.0 0.03 0.60 0.15 93 1009.9
20260903140822 53 345 0.0 2.0 0.06 0.60 0.15 93 1009.9
20260903140328 53 33 0.0 1.0 0.07 0.60 0.15 93 1009.7
20260903135831 53 8 0.0 1.0 0.06 0.59 0.14 93 1009.8
20260903135337 53 333 0.0 9.0 0.06 0.59 0.14 93 1009.8
20260903134819 53 182 2.0 9.0 0.06 0.59 0.14 93 1009.7
20260903134317 53 338 0.0 1.0 0.07 0.59 0.14 93 1009.8
20260903133819 53 338 0.0 1.0 0.06 0.58 0.13 93 1009.7